Location: Newark
(52.3500°N, 175.9667°E)
Time: 23:02:08
(UTC+00:00)

Altair - Pass Details

Date: 26 April 2021
Orbit: 1501 x 1683 km, 47.2° (Epoch: 06 May)

Event Time Altitude Azimuth Distance (km) Brightness Sun altitude
Rises 22:29:02 0° 286° (WNW) 4,805 9.8 46.2°
Reaches altitude 10° 22:32:36 10° 277° (W) 3,789 9.4 46.5°
Maximum altitude 22:40:32 31° 220° (SW) 2,456 9.1 47.2°
Drops below altitude 10° 22:48:16 10° 163° (SSE) 3,672 10.4 47.9°
Sets 22:51:41 0° 153° (SSE) 4,637 10.7 48.1°
